Tracking 26217 objects as of 28-Sep-2022
HD Live streaming from Space Station
objects crossing your sky now

SHIYAN 13 (SY-13)

Track SHIYAN 13 (SY-13) now!
10-day predictions


NORAD ID: 51102
Int'l Code: 2022-004A
Perigee: 371.4 km
Apogee: 1,273.3 km
Inclination: 98.6 °
Period: 101.2 minutes
Semi major axis: 7193 km
RCS: Unknown
Launch date: January 17, 2022
Source: People's Republic of China (PRC)
Launch site: Taiyaun Space Center, China (TSC)
aabbcc
Your satellite tracking list
Your tracking list is empty




NASA's NSSDC Master Catalog

Two Line Element Set (TLE):
1 51102U 22004A   22270.69261053  .00007329  00000-0  37191-3 0  9997
2 51102  98.6412 332.1510 0626940 127.1280 238.8888 14.23000975 36009
Source of the keplerian elements: AFSPC